Torna al catalogo

ALSAT 2A

AttivoScienzaSSO
NORAD 36798·PAYLOAD·🇩🇿 Algeria

Lanciato Jul 12, 2010 da Satish Dhawan Space Centre

Loading…

Prossimi Passaggi (prossime 24 ore)

TLE

AggiornatoSource: Space-Track

Epoca: Sep 14, 2026, 14:09 UTC

1 36798U 10035D   26257.58998833  .00000503  00000-0  82599-4 0  9992
2 36798  97.7681 256.4957 0001214  63.5247 296.6087 14.74590847866935

Traccia ALSAT 2A in tempo reale con AllMySat

Download on the App Store